Location: Westminster
(33.3626°N, 96.4619°W)
Time: 13:11:41
(UTC+00:00)

Cosmos 1763 Rocket - Pass Details

Date: 11 July 2022
Orbit: 732 x 780 km, 74.0° (Epoch: 07 August)

Event Time Altitude Azimuth Distance (km) Brightness Sun altitude
Exits shadow 06:41:09 28° 323° (NW) 1,408 5.2 -34.5°
Drops below altitude 10° 06:44:28 10° 356° (N) 2,325 6.8 -34.5°
Sets 06:47:06 0° 6° (N) 3,260 7.8 -34.4°
